カタログに戻る

THOR ABLESTAR DEB

運用中LEO
NORAD 177·DEBRIS·🇺🇸 United States

打ち上げ Jun 29, 1961 から Cape Canaveral Space Force Station

Loading…

次のパス (今後24時間)

TLE

最新Source: Space-Track

元期: Sep 14, 2026, 14:41 UTC

1 00177U 61015BB  26257.61184457  .00000340  00000-0  20766-3 0  9997
2 00177  66.6553 334.3499 0103978  25.4094 335.2056 14.14892938353818

AllMySatでTHOR ABLESTAR DEBをリアルタイム追跡

Download on the App Store